Change the Weather History Date:

Wednesday, December 25, 2013

  Actual Average Record
Temperature  
Mean Temperature 20 °F -  
Max Temperature 29 °F 21 °F 87 °F (2003)
Min Temperature 10 °F 3 °F -27 °F (1996)
Degree Days  
Heating Degree Days 46    
Moisture  
Dew Point 15 °F    
Average Humidity 83    
Maximum Humidity 93    
Minimum Humidity 63    
Precipitation  
Precipitation 0.00 in - - ()
Sea Level Pressure  
Sea Level Pressure 30.09 in    
Wind  
Wind Speed 8 mph (WSW)    
Max Wind Speed 21 mph    
Max Gust Speed 28 mph    
Visibility 9 miles    
Events Snow    
Averages and records for this station are not official NWS values.
T = Trace of Precipitation, MM = Missing Value Source: NWS Daily Summary

Daily Weather History Graph

Daily Weather History Graph

Search for Another Location

Airport or City:

Trip Planner

Search our weather history database for the weather conditions in past years. The results will help you decide how hot, cold, wet, or windy it might be!

Date:

Astronomy

Dec. 25, 2013 Rise Set
Actual Time 7:54 AM CST 4:41 PM CST
Civil Twilight 7:20 AM CST 5:15 PM CST
Nautical Twilight 6:43 AM CST 5:52 PM CST
Astronomical Twilight 6:07 AM CST 6:28 PM CST
Moon 12:08 AM CST (12/25) 11:59 AM CST (12/25)
Length of Visible Light 9h 55m
Length of Day
8h 47m
Waning Gibbous, 48% of the Moon is Illuminated
Dec 25
Waning Gibbous
Jan 1
New
Jan 7
First Quarter
Jan 15
Full
Jan 23
Last Quarter

Hourly Weather History & Observations

Time (CST) Temp. Windchill Dew Point Humidity Pressure Visibility Wind Dir Wind Speed Gust Speed Precip Events Conditions
4:31 AM 18.0 °F 12.7 °F 14.9 °F 88% 30.05 in 10.0 mi South 3.5 mph - N/A   Overcast
4:34 AM 18.0 °F 12.7 °F 15.1 °F 88% 30.05 in 10.0 mi SSW 3.5 mph - N/A   Overcast
4:53 AM 18.3 °F 10.2 °F 15.8 °F 90% 30.05 in 4.0 mi South 5.8 mph - N/A   Overcast
5:13 AM 18.5 °F 10.4 °F 16.0 °F 90% 30.04 in 7.0 mi South 5.8 mph - N/A   Overcast
5:34 AM 18.9 °F 13.7 °F 16.5 °F 91% 30.04 in 4.0 mi SSE 3.5 mph - N/A Snow Light Snow
5:53 AM 19.0 °F - 16.7 °F 91% 30.04 in 3.0 mi Calm Calm - N/A Snow Light Snow
6:13 AM 19.4 °F 12.8 °F 17.2 °F 91% 30.03 in 5.0 mi South 4.6 mph - N/A Snow Light Snow
6:33 AM 19.4 °F 11.5 °F 17.6 °F 93% 30.03 in 5.0 mi South 5.8 mph - N/A Snow Light Snow
6:53 AM 19.6 °F 10.6 °F 17.6 °F 92% 30.03 in 5.0 mi South 6.9 mph - N/A Snow Light Snow
7:13 AM 20.1 °F 13.6 °F 18.1 °F 92% 30.03 in 7.0 mi South 4.6 mph - N/A Snow Light Snow
7:34 AM 20.3 °F 15.4 °F 18.5 °F 93% 30.03 in 7.0 mi SSW 3.5 mph - N/A Snow Light Snow
7:53 AM 21.2 °F 13.6 °F 19.4 °F 93% 30.03 in 7.0 mi SSW 5.8 mph - N/A   Overcast
8:14 AM 22.1 °F 14.7 °F 20.3 °F 93% 30.03 in 7.0 mi SSW 5.8 mph - N/A   Overcast
8:33 AM 22.6 °F 16.5 °F 20.8 °F 93% 30.03 in 7.0 mi SW 4.6 mph - N/A   Overcast
8:53 AM 24.3 °F 14.6 °F 22.5 °F 93% 30.04 in 7.0 mi WSW 9.2 mph - N/A   Overcast
9:13 AM 24.8 °F 15.3 °F 23.0 °F 93% 30.04 in 7.0 mi West 9.2 mph - N/A   Overcast
9:34 AM 25.3 °F 16.0 °F 23.5 °F 93% 30.04 in 7.0 mi West 9.2 mph - N/A   Overcast
9:53 AM 26.1 °F 16.8 °F 24.3 °F 93% 30.05 in 7.0 mi West 9.2 mph - N/A   Overcast
10:13 AM 27.3 °F 17.7 °F 25.5 °F 93% 30.06 in 7.0 mi West 10.4 mph - N/A   Overcast
10:34 AM 28.4 °F 19.7 °F 25.5 °F 89% 30.06 in 10.0 mi WNW 9.2 mph - N/A   Overcast
10:53 AM 28.8 °F 19.5 °F 24.6 °F 84% 30.06 in 10.0 mi WNW 10.4 mph - N/A   Overcast
11:13 AM 29.1 °F 18.9 °F 23.7 °F 80% 30.06 in 10.0 mi WNW 12.7 mph - N/A   Overcast
11:34 AM 29.1 °F 16.4 °F 21.9 °F 74% 30.07 in 10.0 mi WNW 19.6 mph 24.2 mph N/A   Scattered Clouds
11:53 AM 27.0 °F 14.3 °F 19.4 °F 73% 30.07 in 1.8 mi WNW 17.3 mph 27.6 mph N/A Snow Light Snow
12:14 PM 23.9 °F 10.3 °F 12.9 °F 63% 30.07 in 3.0 mi WNW 17.3 mph 26.5 mph N/A   Haze
12:33 PM 23.7 °F 10.5 °F 14.5 °F 68% 30.07 in 10.0 mi West 16.1 mph 25.3 mph N/A   Clear
12:53 PM 22.1 °F 7.6 °F 13.6 °F 70% 30.08 in 7.0 mi WNW 18.4 mph 27.6 mph N/A   Clear
1:13 PM 21.7 °F 8.5 °F 14.0 °F 72% 30.08 in 10.0 mi WNW 15.0 mph 23.0 mph N/A   Clear
1:33 PM 21.6 °F 7.8 °F 14.0 °F 73% 30.08 in 10.0 mi WNW 16.1 mph 21.9 mph N/A   Clear
1:54 PM 20.7 °F 7.6 °F 14.0 °F 75% 30.08 in 10.0 mi WNW 13.8 mph 21.9 mph N/A   Clear
2:13 PM 20.3 °F 6.1 °F 13.6 °F 75% 30.10 in 10.0 mi WNW 16.1 mph - N/A   Clear
2:33 PM 20.1 °F 4.2 °F 12.9 °F 74% 30.10 in 10.0 mi West 20.7 mph 25.3 mph N/A   Clear
2:53 PM 19.6 °F 4.7 °F 12.9 °F 75% 30.10 in 10.0 mi WNW 17.3 mph 23.0 mph N/A   Clear
3:14 PM 18.3 °F 4.6 °F 12.2 °F 77% 30.11 in 10.0 mi WNW 13.8 mph 21.9 mph N/A   Scattered Clouds
3:33 PM 18.1 °F 2.9 °F 12.2 °F 78% 30.11 in 10.0 mi WNW 17.3 mph 21.9 mph N/A   Scattered Clouds
3:54 PM 18.3 °F 3.6 °F 12.0 °F 76% 30.12 in 10.0 mi WNW 16.1 mph 21.9 mph N/A   Scattered Clouds
4:14 PM 17.6 °F 3.7 °F 11.3 °F 76% 30.13 in 10.0 mi WNW 13.8 mph 19.6 mph N/A   Clear
4:34 PM 16.9 °F 1.7 °F 10.8 °F 77% 30.13 in 10.0 mi WNW 16.1 mph 20.7 mph N/A   Clear
4:53 PM 16.3 °F 2.1 °F 10.2 °F 77% 30.14 in 10.0 mi WNW 13.8 mph 18.4 mph N/A   Clear
5:13 PM 15.8 °F 2.1 °F 9.5 °F 76% 30.14 in 10.0 mi WNW 12.7 mph 18.4 mph N/A   Clear
5:34 PM 15.3 °F 1.4 °F 9.5 °F 78% 30.14 in 10.0 mi WNW 12.7 mph 16.1 mph N/A   Clear
5:53 PM 14.7 °F 2.9 °F 9.3 °F 79% 30.15 in 10.0 mi West 9.2 mph - N/A   Clear
6:13 PM 13.6 °F 2.5 °F 8.6 °F 80% 30.14 in 10.0 mi West 8.1 mph - N/A   Clear
6:33 PM 13.5 °F 1.3 °F 8.6 °F 81% 30.14 in 10.0 mi West 9.2 mph - N/A   Clear
6:53 PM 10.4 °F -2.4 °F 6.3 °F 83% 30.15 in 10.0 mi West 9.2 mph - N/A   Clear
7:13 PM 10.9 °F -0.8 °F 6.8 °F 83% 30.14 in 10.0 mi West 8.1 mph - N/A   Mostly Cloudy
7:33 PM 11.5 °F -0.2 °F 7.7 °F 85% 30.14 in 10.0 mi West 8.1 mph - N/A   Overcast
7:53 PM 12.2 °F 4.3 °F 8.4 °F 85% 30.14 in 10.0 mi WSW 4.6 mph - N/A   Overcast
8:14 PM 12.9 °F 5.2 °F 8.8 °F 84% 30.14 in 10.0 mi WSW 4.6 mph - N/A   Overcast
8:33 PM 13.6 °F 6.0 °F 9.5 °F 84% 30.13 in 10.0 mi WSW 4.6 mph - N/A   Overcast
8:53 PM 13.8 °F 6.2 °F 9.9 °F 84% 30.13 in 10.0 mi SW 4.6 mph - N/A   Overcast
9:13 PM 14.0 °F 8.2 °F 10.4 °F 86% 30.12 in 10.0 mi SW 3.5 mph - N/A   Overcast
9:34 PM 14.9 °F 9.2 °F 11.1 °F 85% 30.12 in 10.0 mi WSW 3.5 mph - N/A   Overcast
9:53 PM 15.3 °F 7.9 °F 11.3 °F 84% 30.12 in 10.0 mi SW 4.6 mph - N/A   Overcast
10:13 PM 15.6 °F 8.3 °F 11.7 °F 84% 30.11 in 10.0 mi SW 4.6 mph - N/A   Overcast
10:33 PM 16.0 °F 10.4 °F 12.2 °F 85% 30.11 in 10.0 mi WSW 3.5 mph - N/A   Overcast
10:53 PM 16.5 °F - 12.7 °F 85% 30.11 in 10.0 mi Calm Calm - N/A   Overcast
11:13 PM 16.7 °F - 12.9 °F 85% 30.09 in 10.0 mi Calm Calm - N/A Snow Light Snow
11:34 PM 16.7 °F - 13.1 °F 86% 30.09 in 10.0 mi Calm Calm - N/A   Overcast
11:53 PM 16.7 °F 11.2 °F 13.5 °F 87% 30.09 in 10.0 mi South 3.5 mph - N/A   Overcast